Volver al catálogo

STARLINK-36564

ActivoComunicacionesSSO
NORAD 67549·PAYLOAD·🇺🇸 United States

Lanzado Jan 22, 2026 desde Vandenberg Space Force Base

Loading…

Próximos Pases (próximas 24 horas)

TLE

ActualizadoSource: CelesTrak SupGP

Época: Sep 15, 2026, 03:25 UTC

1 67549C 26014T   26258.14284722  .00061005  00000+0  18931-2 0  2580
2 67549  97.2844 143.5372 0001908  97.5136 283.8217 15.33417666    15

Sigue STARLINK-36564 en tiempo real con AllMySat

Download on the App Store